�N����,����,�~����,�C��,���x,�C��,����,���ϕ���,�ő�u�ԕ���,�ő厞����,���˗�,�I�_���x,�n�����x,�ő啗���N��,DTYPE
"23/08/22","00:10",0.0,28.0,76.4,1004.1,291.9,0.5,1.1,329.9,0.00,23.5,27.3,"00:05:52",1
"23/08/22","00:20",0.0,27.6,77.0,1004.5,306.2,0.6,1.1,323.5,0.00,23.2,27.5,"00:17:52",1
"23/08/22","00:30",0.0,27.3,77.9,1004.1,308.2,0.6,1.0,313.5,0.00,23.1,27.4,"00:22:48",1
"23/08/22","00:40",0.0,27.0,78.5,1004.1,315.5,0.6,1.0,343.7,0.00,23.0,27.5,"00:34:08",1
"23/08/22","00:50",0.0,26.9,80.0,1004.1,320.8,0.7,1.4,288.1,0.00,23.2,27.4,"00:48:00",1
"23/08/22","01:00",0.0,26.5,81.1,1004.1,317.8,0.3,1.2,345.0,0.00,23.0,27.2,"00:50:32",1
"23/08/22","01:10",0.0,26.3,82.2,1003.8,305.0,0.6,1.1,315.0,0.00,23.1,27.4,"01:03:04",1
"23/08/22","01:20",0.0,26.2,83.5,1003.6,323.2,0.6,1.4,317.3,0.00,23.2,27.4,"01:19:52",1
"23/08/22","01:30",0.0,26.1,84.2,1003.8,313.5,0.6,1.2,313.7,0.00,23.3,27.2,"01:21:04",1
"23/08/22","01:40",0.0,26.0,84.9,1003.6,292.8,0.5,1.2,249.9,0.00,23.3,27.2,"01:35:44",1
"23/08/22","01:50",0.0,26.0,85.4,1003.8,287.4,0.8,1.3,333.3,0.00,23.4,27.3,"01:48:56",1
"23/08/22","02:00",0.0,26.0,85.5,1003.4,327.8,0.6,1.7,321.5,0.00,23.4,27.2,"01:52:32",1
"23/08/22","02:10",0.0,25.9,85.7,1003.4,296.2,0.7,1.6,340.7,0.00,23.4,27.1,"02:03:44",1
"23/08/22","02:20",0.0,25.8,86.2,1003.8,303.5,0.5,0.9,338.6,0.00,23.4,27.1,"02:12:16",1
"23/08/22","02:30",0.0,25.5,86.5,1003.6,279.2,0.3,0.9,325.1,0.00,23.1,27.2,"02:20:02",1
"23/08/22","02:40",0.0,25.6,87.0,1003.6,315.1,0.6,1.0,326.8,0.00,23.3,27.0,"02:37:44",1
"23/08/22","02:50",0.0,25.7,87.3,1003.6,307.6,0.8,1.8,336.9,0.00,23.5,27.1,"02:47:44",1
"23/08/22","03:00",0.0,25.7,87.4,1003.6,308.6,0.7,1.2,316.2,0.00,23.5,26.9,"02:53:20",1
"23/08/22","03:10",0.0,25.5,87.5,1003.8,301.2,0.5,0.8,260.2,0.00,23.3,26.8,"03:00:08",1
"23/08/22","03:20",0.0,25.5,87.8,1003.6,317.4,0.6,1.0,330.6,0.00,23.4,26.8,"03:14:56",1
"23/08/22","03:30",0.0,25.4,88.0,1003.6,280.4,0.6,1.1,321.7,0.00,23.3,27.0,"03:20:48",1
"23/08/22","03:40",0.0,25.5,88.3,1003.4,276.3,0.6,1.0,266.3,0.00,23.5,27.0,"03:34:32",1
"23/08/22","03:50",0.0,25.6,88.5,1003.4,337.9,0.7,1.8,342.6,0.00,23.6,26.8,"03:46:32",1
"23/08/22","04:00",0.0,25.5,88.7,1003.6,311.1,0.6,1.2,330.1,0.00,23.5,26.8,"03:59:20",1
"23/08/22","04:10",0.0,25.5,88.9,1003.1,333.1,0.3,0.9,329.8,0.00,23.6,26.9,"04:02:48",1
"23/08/22","04:20",0.0,25.4,89.1,1003.6,280.9,0.3,0.6,313.8,0.00,23.5,26.8,"04:10:32",1
"23/08/22","04:30",0.0,25.5,89.4,1003.6,314.8,0.8,1.3,328.0,0.00,23.7,26.8,"04:27:04",1
"23/08/22","04:40",0.0,25.4,89.7,1003.1,304.5,0.7,1.1,319.7,0.00,23.6,26.6,"04:32:48",1
"23/08/22","04:50",0.0,25.4,90.0,1003.6,276.6,0.5,1.1,305.7,0.00,23.7,26.9,"04:49:20",1
"23/08/22","05:00",0.0,25.5,90.2,1003.8,321.3,0.7,1.3,333.2,0.00,23.8,26.7,"04:58:08",1
"23/08/22","05:10",0.0,25.6,90.3,1003.8,340.6,1.0,1.6,338.3,0.00,23.9,26.7,"05:02:16",1
"23/08/22","05:20",0.0,25.4,90.4,1003.6,291.9,0.5,0.9,314.0,0.00,23.8,26.8,"05:10:56",1
"23/08/22","05:30",0.0,25.3,90.6,1003.6,307.9,0.7,1.4,319.7,0.00,23.7,26.7,"05:22:40",1
"23/08/22","05:40",0.0,25.3,90.7,1003.6,329.4,0.7,1.2,330.4,0.00,23.7,26.7,"05:36:24",1
"23/08/22","05:50",0.0,25.3,90.9,1003.6,295.5,0.3,0.8,308.5,0.00,23.7,26.8,"05:46:32",1
"23/08/22","06:00",0.0,25.3,91.0,1003.6,289.0,0.6,0.8,302.8,0.00,23.8,26.4,"05:54:00",1
"23/08/22","06:10",0.0,25.5,91.2,1003.8,284.5,0.6,1.1,257.5,0.00,24.0,26.7,"06:03:36",1
"23/08/22","06:20",0.0,26.0,91.3,1003.8,273.5,0.6,1.6,343.3,0.00,24.5,26.7,"06:13:20",1
"23/08/22","06:30",0.0,26.7,91.5,1003.6,282.8,0.5,0.8,304.4,0.04,25.2,26.6,"06:22:56",1
"23/08/22","06:40",0.0,27.4,91.3,1003.1,298.1,0.5,1.2,330.3,0.07,25.9,26.4,"06:33:36",1
"23/08/22","06:50",0.0,28.3,90.6,1003.4,321.8,0.2,0.8,359.6,0.06,26.7,26.4,"06:40:08",1
"23/08/22","07:00",0.0,28.1,89.0,1003.6,139.4,0.5,1.8,97.8,0.06,26.2,26.7,"06:50:02",1
"23/08/22","07:10",0.0,29.4,86.9,1002.6,81.9,0.5,1.4,22.0,0.11,27.0,26.6,"07:08:08",1
"23/08/22","07:20",0.0,30.1,83.5,1003.1,105.8,0.6,2.2,95.4,0.12,27.0,26.7,"07:13:20",1
"23/08/22","07:30",0.0,30.2,80.0,1003.4,144.7,1.0,1.8,124.7,0.13,26.4,26.4,"07:21:52",1
"23/08/22","07:40",0.0,29.9,78.2,1003.6,131.9,1.2,2.6,16.9,0.08,25.7,26.7,"07:36:08",1
"23/08/22","07:50",0.0,29.7,78.3,1003.4,141.3,1.2,2.9,158.3,0.08,25.6,26.7,"07:43:36",1
"23/08/22","08:00",0.0,29.7,78.2,1003.4,114.0,0.8,2.5,113.6,0.08,25.5,26.6,"07:56:40",1
"23/08/22","08:10",0.0,29.8,77.5,1003.4,106.1,1.1,2.6,71.8,0.07,25.5,26.6,"08:09:52",1
"23/08/22","08:20",0.0,30.5,77.6,1003.1,102.4,1.0,2.5,87.4,0.20,26.2,26.7,"08:17:04",1
"23/08/22","08:30",0.0,31.5,74.2,1004.1,104.0,1.3,3.3,84.9,0.30,26.4,26.5,"08:27:04",1
"23/08/22","08:40",0.0,31.2,73.6,1004.1,110.9,1.1,3.6,126.1,0.13,26.0,26.8,"08:36:40",1
"23/08/22","08:50",0.0,31.3,73.7,1004.3,103.3,1.6,3.7,133.9,0.28,26.1,26.9,"08:47:20",1
"23/08/22","09:00",0.0,31.0,73.7,1004.3,84.3,0.8,2.5,102.1,0.12,25.8,26.9,"08:58:48",1
"23/08/22","09:10",0.0,31.0,73.5,1004.5,60.9,0.7,1.8,89.8,0.15,25.7,26.8,"09:09:48",1
"23/08/22","09:20",0.0,30.4,74.1,1004.3,109.3,1.2,2.8,120.2,0.06,25.3,26.8,"09:12:16",1
"23/08/22","09:30",0.0,30.0,76.0,1003.8,111.5,1.3,3.4,101.7,0.11,25.3,26.9,"09:21:20",1
"23/08/22","09:40",0.0,30.3,76.1,1003.6,95.2,1.3,2.8,56.1,0.13,25.7,27.0,"09:30:08",1
"23/08/22","09:50",0.0,31.1,75.2,1004.1,112.1,1.2,3.4,109.6,0.27,26.2,27.0,"09:48:48",1
"23/08/22","10:00",0.0,31.2,72.6,1004.3,95.0,1.0,3.1,105.5,0.15,25.7,27.0,"09:59:04",1
"23/08/22","10:10",0.0,31.8,73.0,1004.5,103.9,1.2,2.8,97.4,0.29,26.4,26.9,"10:09:44",1
"23/08/22","10:20",0.0,32.7,69.8,1004.8,110.2,1.5,3.6,112.1,0.47,26.5,27.0,"10:13:04",1
"23/08/22","10:30",0.0,33.0,68.1,1004.8,122.1,1.5,3.3,115.4,0.37,26.4,27.1,"10:20:40",1
"23/08/22","10:40",0.0,32.1,67.8,1005.0,133.9,1.7,3.6,107.7,0.20,25.4,27.1,"10:37:20",1
"23/08/22","10:50",0.0,31.7,68.7,1004.5,113.2,1.7,2.8,126.5,0.11,25.3,27.3,"10:42:40",1
"23/08/22","11:00",0.0,31.7,69.6,1004.1,125.8,1.6,4.7,132.1,0.15,25.5,27.2,"10:50:48",1
"23/08/22","11:10",0.0,32.5,69.0,1004.1,123.1,1.3,3.3,116.0,0.28,26.1,27.4,"11:03:28",1
"23/08/22","11:20",0.0,32.8,67.2,1004.3,129.8,1.1,2.8,136.7,0.25,26.0,27.1,"11:12:00",1
"23/08/22","11:30",0.0,33.0,65.6,1004.3,97.7,1.7,3.9,105.8,0.26,25.7,27.4,"11:27:20",1
"23/08/22","11:40",0.0,32.9,64.9,1004.3,128.3,1.8,4.0,165.1,0.29,25.5,27.5,"11:34:24",1
"23/08/22","11:50",0.0,33.2,64.7,1004.3,139.0,1.8,4.8,134.4,0.28,25.7,27.4,"11:40:24",1
"23/08/22","12:00",0.0,33.8,64.0,1004.3,96.3,1.3,3.1,97.8,0.33,26.1,27.5,"11:59:52",1
"23/08/22","12:10",0.0,34.3,61.5,1004.3,144.4,2.2,5.4,132.0,0.59,25.9,27.4,"12:09:12",1
"23/08/22","12:20",0.0,34.2,61.4,1004.5,110.2,1.8,4.0,94.5,0.40,25.7,27.4,"12:17:44",1
"23/08/22","12:30",0.0,34.9,59.5,1004.8,135.3,1.6,4.4,134.5,0.44,25.9,27.6,"12:23:52",1
"23/08/22","12:40",0.0,33.9,61.1,1004.3,142.4,2.0,4.4,114.9,0.26,25.4,27.5,"12:31:20",1
"23/08/22","12:50",0.0,33.1,62.0,1004.1,138.4,1.8,4.2,102.3,0.15,24.9,27.6,"12:45:44",1
"23/08/22","13:00",0.0,33.9,61.1,1003.8,131.2,1.6,4.5,116.4,0.32,25.4,27.8,"12:51:36",1
"23/08/22","13:10",0.0,34.2,58.6,1003.4,103.3,1.5,3.7,110.6,0.23,25.0,27.8,"13:07:36",1
"23/08/22","13:20",0.0,33.8,59.0,1003.4,128.8,2.0,4.1,111.6,0.24,24.7,27.9,"13:13:36",1
"23/08/22","13:30",0.0,33.8,61.2,1003.4,142.0,1.7,3.9,147.9,0.22,25.3,28.0,"13:28:16",1
"23/08/22","13:40",0.0,35.0,59.9,1003.4,120.7,1.7,3.7,126.7,0.41,26.1,28.1,"13:33:12",1
"23/08/22","13:50",0.0,33.9,58.6,1003.6,128.6,2.2,4.5,105.1,0.18,24.7,28.0,"13:42:24",1
"23/08/22","14:00",0.0,33.3,61.2,1003.6,139.5,2.0,4.9,123.8,0.16,24.8,28.2,"13:51:12",1
"23/08/22","14:10",0.0,33.4,60.2,1003.4,141.2,2.2,4.5,155.4,0.20,24.7,27.8,"14:08:56",1
"23/08/22","14:20",0.0,33.1,61.0,1003.1,140.5,2.1,4.7,152.4,0.12,24.6,28.2,"14:15:36",1
"23/08/22","14:30",0.0,32.8,61.6,1002.9,145.5,2.5,5.7,146.1,0.13,24.5,28.0,"14:28:00",1
"23/08/22","14:40",0.0,33.3,62.2,1002.6,129.4,2.0,5.2,113.0,0.22,25.1,28.1,"14:32:24",1
"23/08/22","14:50",0.0,33.2,60.6,1002.9,130.4,2.0,4.2,129.1,0.17,24.6,28.0,"14:43:36",1
"23/08/22","15:00",0.0,32.7,61.6,1002.6,135.0,2.1,4.3,126.1,0.14,24.4,28.0,"14:53:52",1
"23/08/22","15:10",0.0,32.2,65.5,1002.6,148.3,2.3,4.7,222.3,0.09,25.0,27.9,"15:09:04",1
"23/08/22","15:20",0.0,31.7,68.5,1002.9,181.9,2.6,4.7,200.2,0.11,25.2,28.0,"15:13:36",1
"23/08/22","15:30",0.0,31.5,69.0,1002.4,194.9,2.6,3.9,194.5,0.10,25.2,28.0,"15:22:00",1
"23/08/22","15:40",0.0,31.7,69.0,1002.4,202.8,2.3,5.1,221.4,0.11,25.3,28.1,"15:38:48",1
"23/08/22","15:50",0.0,31.9,69.1,1002.2,192.9,2.2,4.5,211.6,0.16,25.6,28.2,"15:43:36",1
"23/08/22","16:00",0.0,31.9,68.8,1002.6,186.0,2.0,4.1,199.4,0.10,25.5,28.1,"15:56:56",1
"23/08/22","16:10",0.0,31.2,72.1,1002.4,171.5,2.0,4.1,94.7,0.07,25.6,28.0,"16:04:16",1
"23/08/22","16:20",0.2,30.6,75.3,1001.7,188.5,2.3,4.3,217.1,0.07,25.8,27.9,"16:13:04",1
"23/08/22","16:30",0.0,30.7,76.2,1001.5,193.7,1.2,3.3,204.3,0.08,26.1,28.2,"16:22:00",1
"23/08/22","16:40",0.0,30.6,75.2,1001.5,221.5,1.0,3.2,235.2,0.05,25.7,27.9,"16:31:20",1
"23/08/22","16:50",0.0,31.5,73.5,1001.7,297.5,0.5,1.6,242.8,0.13,26.2,28.0,"16:41:44",1
"23/08/22","17:00",0.0,32.0,70.9,1001.9,248.8,0.8,1.9,197.2,0.12,26.1,27.9,"16:50:48",1
"23/08/22","17:10",0.0,32.7,68.7,1002.2,331.2,0.7,1.7,343.7,0.12,26.2,27.9,"17:01:04",1
"23/08/22","17:20",0.0,32.7,65.7,1002.4,185.5,0.7,2.2,218.4,0.09,25.5,27.8,"17:18:08",1
"23/08/22","17:30",0.0,32.2,67.5,1002.4,194.2,1.7,3.7,235.2,0.05,25.5,28.1,"17:22:24",1
"23/08/22","17:40",0.0,31.9,68.8,1002.2,203.0,1.6,3.3,225.4,0.05,25.5,28.0,"17:38:24",1
"23/08/22","17:50",0.0,31.3,70.0,1001.9,209.6,1.7,3.7,242.6,0.02,25.2,27.9,"17:48:16",1
"23/08/22","18:00",0.0,30.9,71.4,1002.2,187.4,1.5,2.7,200.3,0.00,25.2,28.0,"17:52:56",1
"23/08/22","18:10",0.0,30.6,72.9,1001.9,187.8,1.3,2.8,214.0,0.00,25.2,27.8,"18:04:40",1
"23/08/22","18:20",0.0,30.6,73.5,1001.5,193.8,1.3,3.6,230.3,0.00,25.4,28.0,"18:15:52",1
"23/08/22","18:30",0.0,30.6,73.6,1001.5,187.3,1.6,4.0,207.4,0.00,25.4,28.0,"18:20:48",1
"23/08/22","18:40",0.0,30.5,73.4,1001.5,187.9,1.7,3.5,215.3,0.00,25.2,27.8,"18:37:52",1
"23/08/22","18:50",0.0,30.5,73.6,1001.5,180.4,1.5,3.1,193.5,0.00,25.3,27.9,"18:40:16",1
"23/08/22","19:00",0.0,30.4,74.0,1001.7,170.2,1.5,3.4,218.3,0.00,25.3,27.8,"18:54:48",1
"23/08/22","19:10",0.0,30.4,74.4,1001.7,159.1,1.2,3.2,216.2,0.00,25.4,27.7,"19:06:08",1
"23/08/22","19:20",0.0,30.3,74.5,1001.2,161.9,1.1,1.9,165.7,0.00,25.3,27.9,"19:10:32",1
"23/08/22","19:30",0.0,30.2,74.8,1001.7,177.4,1.1,2.0,184.5,0.00,25.3,27.8,"19:21:52",1
"23/08/22","19:40",0.0,30.2,72.4,1001.7,172.2,1.7,3.3,193.7,0.00,24.7,27.9,"19:36:40",1
"23/08/22","19:50",0.0,30.3,71.9,1001.9,167.4,1.6,4.3,197.1,0.00,24.7,27.9,"19:49:36",1
"23/08/22","20:00",0.0,30.3,71.7,1002.4,168.5,2.1,4.1,191.6,0.00,24.7,27.7,"19:50:16",1
"23/08/22","20:10",0.0,30.1,72.0,1002.2,166.2,1.7,3.4,193.0,0.00,24.5,27.6,"20:03:36",1
"23/08/22","20:20",0.0,30.0,72.7,1002.4,165.5,1.6,3.4,182.9,0.00,24.6,27.6,"20:11:36",1
"23/08/22","20:30",0.0,29.8,73.3,1002.4,149.8,1.2,2.2,158.5,0.00,24.5,27.3,"20:20:08",1
"23/08/22","20:40",0.0,29.7,73.8,1002.9,157.6,1.0,2.0,132.0,0.00,24.6,27.7,"20:31:52",1
"23/08/22","20:50",0.0,29.6,74.1,1002.6,143.3,0.8,2.1,123.7,0.00,24.5,27.5,"20:44:40",1
"23/08/22","21:00",0.0,29.4,74.6,1002.6,134.8,0.7,2.2,133.3,0.00,24.5,27.6,"20:52:32",1
"23/08/22","21:10",0.0,29.6,73.9,1001.9,110.2,0.8,2.8,120.5,0.00,24.5,27.5,"21:06:32",1
"23/08/22","21:20",0.0,30.0,73.1,1001.7,83.0,1.3,3.7,42.1,0.00,24.7,27.5,"21:14:32",1
"23/08/22","21:30",0.0,29.8,73.9,1002.2,125.8,1.3,3.6,129.9,0.00,24.7,27.4,"21:28:48",1
"23/08/22","21:40",0.0,29.7,74.3,1002.4,125.5,1.6,3.2,153.5,0.00,24.7,27.4,"21:37:12",1
"23/08/22","21:50",0.0,29.7,74.3,1001.9,125.3,1.6,3.6,141.0,0.00,24.7,27.5,"21:43:20",1
"23/08/22","22:00",0.0,29.7,74.8,1002.2,114.5,0.8,2.6,130.8,0.00,24.8,27.3,"21:58:08",1
"23/08/22","22:10",0.0,29.5,75.5,1001.9,118.9,1.1,2.7,109.9,0.00,24.8,27.4,"22:08:32",1
"23/08/22","22:20",0.0,29.4,76.3,1001.9,80.3,1.1,3.3,91.3,0.00,24.8,27.5,"22:11:44",1
"23/08/22","22:30",0.0,29.3,77.1,1001.9,102.4,1.1,3.3,109.7,0.00,24.9,27.4,"22:22:32",1
"23/08/22","22:40",0.0,29.1,77.9,1002.2,98.0,1.2,2.9,108.5,0.00,24.9,27.2,"22:30:40",1
"23/08/22","22:50",0.0,29.1,78.3,1002.4,106.0,1.1,2.9,110.2,0.00,25.0,27.3,"22:40:48",1
"23/08/22","23:00",0.0,29.0,78.8,1002.4,121.5,0.7,2.2,96.9,0.00,25.0,27.2,"22:50:48",1
"23/08/22","23:10",0.0,28.9,79.2,1002.4,108.7,0.6,1.8,40.8,0.00,25.0,27.3,"23:00:24",1
"23/08/22","23:20",0.0,28.9,79.6,1002.4,95.2,0.6,2.2,99.7,0.00,25.1,27.4,"23:16:00",1
"23/08/22","23:30",0.0,28.9,79.7,1002.2,62.0,0.7,2.0,140.2,0.00,25.1,27.3,"23:24:16",1
"23/08/22","23:40",0.0,28.8,79.8,1002.4,55.4,0.7,1.9,115.6,0.00,25.0,27.1,"23:39:28",1
"23/08/22","23:50",0.0,28.8,79.7,1002.2,41.7,0.6,1.9,21.0,0.00,25.0,27.3,"23:47:12",1
"23/08/22","24:00",0.0,28.8,79.5,1002.4,47.4,0.8,2.8,101.6,0.00,24.9,27.2,"23:56:48",1
